Date,TemperatureHighF,TemperatureAvgF,TemperatureLowF,DewpointHighF,DewpointAvgF,DewpointLowF,HumidityHigh,HumidityAvg,HumidityLow,PressureMaxIn,PressureMinIn,WindSpeedMaxMPH,WindSpeedAvgMPH,GustSpeedMaxMPH,PrecipitationSumIn
2013-11-1,59,40,25,43,33,22,93,78,53,30.34,30.03,9,0,9,0.00
2013-11-2,48,40,27,41,32,23,92,74,47,30.11,29.82,13,1,13,0.07
2013-11-3,43,32,20,28,25,17,91,76,47,30.22,30.06,17,0,17,0.00
2013-11-4,48,36,27,32,28,24,90,74,46,30.26,30.17,9,0,11,0.00
2013-11-5,52,43,35,41,37,30,87,77,60,30.29,30.16,10,1,10,0.01
2013-11-6,57,46,33,45,40,30,93,81,59,30.34,30.17,9,0,9,0.00
2013-11-7,52,42,28,44,36,24,92,79,62,30.17,29.89,12,1,13,0.17
2013-11-8,45,34,26,34,28,24,91,80,57,30.27,30.16,3,0,4,0.00
2013-11-9,45,34,24,36,30,21,96,83,62,30.24,30.17,4,0,4,0.00
2013-11-10,59,41,29,43,34,26,92,79,49,30.26,30.16,9,0,9,0.00
2013-11-11,40,35,27,36,32,24,92,89,84,30.36,30.25,2,0,2,0.01
2013-11-12,58,42,31,44,36,28,93,81,52,30.47,30.30,10,0,10,0.03
2013-11-13,56,36,24,39,28,20,93,76,37,30.54,30.37,5,0,5,0.01
2013-11-14,46,32,21,30,24,18,92,74,44,30.37,30.16,6,0,9,0.00
2013-11-15,42,31,18,29,23,15,91,73,54,30.18,29.67,16,0,16,0.00
2013-11-16,46,38,27,30,27,22,88,66,50,29.90,29.56,16,1,16,0.00
2013-11-17,46,37,28,31,28,23,89,70,52,30.11,29.89,12,1,12,0.00
2013-11-18,51,42,36,36,32,28,85,68,50,30.08,29.84,13,1,13,0.04
2013-11-19,49,42,38,44,38,34,89,84,75,29.89,29.81,11,1,14,0.11
2013-11-20,40,29,12,37,20,1,91,68,42,30.50,29.89,10,1,11,0.00
2013-11-21,32,15,5,10,4,0,80,62,33,30.89,30.50,8,0,8,0.00
2013-11-22,35,16,4,14,7,0,91,67,40,30.94,30.81,4,0,4,0.00
2013-11-23,37,17,6,19,9,1,89,72,45,30.82,30.54,3,0,4,0.00
2013-11-24,54,25,9,25,15,5,90,69,31,30.54,30.42,4,0,4,0.00
2013-11-25,49,25,12,25,16,9,90,71,38,30.58,30.48,3,0,3,0.00
2013-11-26,48,27,16,26,19,12,90,72,41,30.52,30.32,2,0,3,0.00
2013-11-27,44,28,18,27,21,14,89,76,49,30.34,30.18,4,0,5,0.00
2013-11-28,52,27,13,31,19,9,91,75,43,30.40,30.25,3,0,3,0.00
2013-11-29,54,34,17,30,23,14,91,68,35,30.45,30.36,3,0,3,0.00
2013-11-30,53,39,28,37,32,24,92,75,53,30.44,30.34,6,0,7,0.00